User: anonymous   Login
Location: Unspecified
(0.0000°N, 0.0000°E)
Time: 07:55:35
(UTC+00:00)
Language:

NOSS 2-2 (C) - Orbit

View from above orbital plane
View from above orbital plane
View from above satellite
View from above satellite

Ground track
Ground track

The orbit data is extracted from the following two-line orbital elements,

1 21799U 91076C   17141.92123448 0.00000050  00000-0  17049-4 0    01
2 21799  63.3630 167.9046 0738000  25.7068 334.2932 13.41097930    03
Epoch (UTC): 21 May 2017 22:06:34
Eccentricity: 0.0738000
inclination: 63.3630°
perigee height: 553 km
apogee height: 1657 km
right ascension of ascending node: 167.9046°
argument of perigee: 25.7068°
revolutions per day: 13.41097930
mean anomaly at epoch: 334.2932°
orbit number at epoch: 0

The dashed part of the orbit path shows where the satellite is in the earth's shadow,  

DLR